Regional Weather Roundup
Issued by NWS Memphis, TN

Home | Current Version | Previous Version | Text Only | Print | Product List | Glossary On
Versions: 1 2 3 4 5 6 7 8 9 10 11 12 13 14 15 16 17 18 19 20 21 22 23 24 25 26 27 28 29 30 31 32 33 34 35 36 37 38 39 40 41 42 43 44 45 46 47 48 49 50
000
ASUS44 KMEG 130910
RWRMEG
MEMPHIS CWA HOURLY WEATHER ROUNDUP
NATIONAL WEATHER SERVICE MEMPHIS TN
300 AM CST SAT FEB 13 2016

...WEST TENNESSEE...

CITY           SKY/WX    TMP DP  RH WIND       PRES   REMARKS
MEMPHIS INTL   PTCLDY    32  13  45 N15G21    30.47F WCI  22
NWS MEMPHIS      N/A     30 N/A N/A MISG        N/A
JACKSON        PTCLDY    25  16  68 N10       30.48R WCI  15
LEXINGTON      CLEAR     25  10  54 N7        30.44R WCI  17
DYERSBURG      CLEAR     27   9  46 N15       30.52R WCI  15
UNION CITY     CLEAR     21  12  68 N8        30.50R WCI  12
PARIS          CLEAR     19  10  68 N10       30.48R WCI   8


...EASTERN ARKANSAS...

CITY           SKY/WX    TMP DP  RH WIND       PRES   REMARKS
JONESBORO      CLEAR     28  15  58 NE6       30.51R WCI  22
WEST MEMPHIS   CLEAR     30  16  56 NE14      30.48S WCI  19
BATESVILLE     CLOUDY    32  12  43 NW7       30.53R WCI  26
NEWPORT        CLOUDY    31  17  56 N10       30.53R WCI  22
WALNUT RIDGE   PTCLDY    28  10  47 NE13      30.53R WCI  18
BLYTHEVILLE    CLEAR     27  15  61 N17       30.52R WCI  14
SEARCY         CLOUDY    36  14  41 NE14      30.51R WCI  27
STUTTGART      CLEAR     36  21  55 NE10      30.48S WCI  28
PINE BLUFF     CLOUDY    40  25  55 NE12      30.46F WCI  33
MONTICELLO     CLOUDY    43  27  53 NE9       30.44R


...NORTH MISSISSIPPI...

CITY           SKY/WX    TMP DP  RH WIND       PRES   REMARKS
TUPELO         CLEAR     32  19  58 N15       30.44R WCI  22
OXFORD         CLEAR     30  19  64 NE7       30.46S WCI  23
TUNICA         CLEAR     32  19  59 N14       30.48F WCI  22
CORINTH        CLEAR     30  14  51 N10G20    30.45S WCI  21
GREENWOOD      CLEAR     37  27  67 NE15      30.43S WCI  28
COLUMBUS       CLEAR     36  24  64 N12       30.40R WCI  27
STARKVILLE     FAIR      36  28  75 N7        30.40S WCI  30
GOLDEN TRIANGL CLEAR     36  21  55 N10       30.39F WCI  28


...SOUTHEAST MISSOURI...

CITY           SKY/WX    TMP DP  RH WIND       PRES   REMARKS
WEST PLAINS    CLOUDY    23   8  52 N10       30.50R WCI  12
POPLAR BLUFF   PTCLDY    25   7  46 N10       30.54R WCI  15
CAPE GIRARDEAU PTCLDY    20   6  55 N14       30.55R WCI   7


...NORTHWEST ALABAMA...

CITY           SKY/WX    TMP DP  RH WIND       PRES   REMARKS
MUSCLE SHOALS  CLEAR     30  15  53 N8        30.43R WCI  22


...MIDDLE TENNESSEE...

CITY           SKY/WX    TMP DP  RH WIND       PRES   REMARKS
NASHVILLE      CLOUDY    25  12  58 N8        30.45R WCI  16
CLARKSVILLE    PTCLDY    22  12  65 N13       30.48R WCI  10
COLUMBIA       CLEAR     25  18  74 N8        30.41R WCI  16


...WESTERN KENTUCKY...

CITY           SKY/WX    TMP DP  RH WIND       PRES   REMARKS
PADUCAH        PTCLDY    21   6  52 N12G21    30.52R WCI   9
FORT CAMPBELL  PTCLDY    22  11  62 N7        30.47R WCI  14


...CENTRAL ARKANSAS...

CITY           SKY/WX    TMP DP  RH WIND       PRES   REMARKS
LITTLE ROCK    CLOUDY    40  21  46 NE10      30.48S WCI  33


SKY/WX REPORTED AS FAIR MEANS FEW OR NO CLOUDS BELOW
12 THOUSAND FEET.




USA.gov is the U.S. government's official web portal to all federal, state and local government web resources and services.